Location: St Paul
(33.4390°N, 83.7350°W)
Time: 05:03:27
(UTC-05:00)

Cosmos 2322 Rocket - Pass Details

Date: 06 October 2017
Orbit: 833 x 850 km, 71.0° (Epoch: 14 December)

Event Time Altitude Azimuth Distance (km) Brightness Sun altitude
Rises 20:26:32 0° 357° (N) 3,383 5.4 -16.3°
Reaches altitude 10° 20:29:52 10° 17° (NNE) 2,446 4.5 -17.0°
Enters shadow 20:32:49 17° 49° (NE) 1,996 3.8 -17.6°
